Back to catalog

STARLINK-31785

AliveCommunicationsVLEO
NORAD 60131·PAYLOAD·🇺🇸 United States

Launched Jun 24, 2024 from Vandenberg Space Force Base

Loading…

Next Passes (next 24 hours)

TLE

FreshSource: CelesTrak SupGP

Epoch: Sep 14, 2026, 22:53 UTC

1 60131C 24118U   26257.95395833 -.00000292  00000+0 -94035-5 0  2571
2 60131  53.1571 226.0365 0001573 101.4232 333.2744 15.31670048    10

Track STARLINK-31785 in real time with AllMySat

Download on the App Store